USA 167                 
1 27691U 03008A   19265.47998473  .00000053  00000-0  00000+0 0  9997
2 27691   6.1418  60.2650 0001736 344.4009 358.7838  1.00272419  6955
DELTA 4 R/B             
1 27692U 03008B   19262.06604452  .00015715  00000-0  10741-2 0  9998
2 27692  25.1230 109.3584 6349906 106.9096 328.1937  3.57262928  2277
IABS R/B                
1 27693U 03008C   19264.22089423 -.00000224  00000-0  00000+0 0  9998
2 27693  11.7617  28.2967 0018196 174.7834 185.2760  1.01121029  1710